Weather History for KFRM - November, 2013

Change the Weather History Date:

Monday, November 4, 2013

  Actual Average Record
Temperature  
Mean Temperature 40 °F -  
Max Temperature 50 °F 45 °F - (-1)
Min Temperature 30 °F 29 °F - (-1)
Degree Days  
Heating Degree Days 25    
Moisture  
Dew Point 34 °F    
Average Humidity 70    
Maximum Humidity 87    
Minimum Humidity 57    
Precipitation  
Precipitation 0.01 in - - ()
Sea Level Pressure  
Sea Level Pressure 29.93 in    
Wind  
Wind Speed 17 mph (SW)    
Max Wind Speed 25 mph    
Max Gust Speed 31 mph    
Visibility 10 miles    
Events      
Averages and records for this station are not official NWS values.
T = Trace of Precipitation, MM = Missing Value Source: NWS Daily Summary

Daily Weather History Graph

Daily Weather History Graph

Search for Another Location

Airport or City:

Trip Planner

Search our weather history database for the weather conditions in past years. The results will help you decide how hot, cold, wet, or windy it might be!

Date:

Astronomy

Nov. 04, 2013 Rise Set
Actual Time 6:57 AM CST 5:04 PM CST
Civil Twilight 6:27 AM CST 5:34 PM CST
Nautical Twilight 5:53 AM CST 6:08 PM CST
Astronomical Twilight 5:20 AM CST 6:41 PM CST
Moon 8:10 AM CST (11/4) 6:07 PM CST (11/4)
Length of Visible Light 11h 06m
Length of Day
10h 06m
New Moon, 2% of the Moon is Illuminated
Nov 4
New Moon
Nov 9
First Quarter
Nov 17
Full
Nov 25
Last Quarter
Dec 2
New

Hourly Weather History & Observations

Time (CST) Temp. Windchill Dew Point Humidity Pressure Visibility Wind Dir Wind Speed Gust Speed Precip Events Conditions
12:15 AM 46.4 °F 38.3 °F 32.0 °F 57% 29.82 in 10.0 mi SSE 23.0 mph 28.8 mph N/A   Partly Cloudy
12:35 AM 46.4 °F 37.9 °F 32.0 °F 57% 29.81 in 10.0 mi SSE 25.3 mph 31.1 mph N/A   Partly Cloudy
12:55 AM 46.4 °F 38.3 °F 32.0 °F 57% 29.82 in 10.0 mi SSE 23.0 mph 28.8 mph N/A   Clear
1:15 AM 46.4 °F 38.5 °F 32.0 °F 57% 29.82 in 10.0 mi SSE 21.9 mph 27.6 mph N/A   Clear
1:35 AM 46.4 °F 39.2 °F 33.8 °F 62% 29.82 in 10.0 mi SSE 18.4 mph 28.8 mph N/A   Clear
1:55 AM 46.4 °F 38.7 °F 33.8 °F 62% 29.81 in 10.0 mi SSE 20.7 mph 26.5 mph N/A   Partly Cloudy
2:15 AM 46.4 °F 39.0 °F 33.8 °F 62% 29.81 in 10.0 mi SSE 19.6 mph - N/A   Partly Cloudy
2:35 AM 46.4 °F 38.7 °F 33.8 °F 62% 29.81 in 10.0 mi SSE 20.7 mph 25.3 mph N/A   Clear
2:55 AM 46.4 °F 39.0 °F 33.8 °F 62% 29.81 in 10.0 mi SSE 19.6 mph - N/A   Clear
3:15 AM 46.4 °F 38.7 °F 33.8 °F 62% 29.81 in 10.0 mi SSE 20.7 mph 26.5 mph N/A   Scattered Clouds
3:35 AM 46.4 °F 38.7 °F 33.8 °F 62% 29.80 in 10.0 mi SSE 20.7 mph - N/A   Partly Cloudy
3:55 AM 44.6 °F 36.9 °F 33.8 °F 66% 29.81 in 10.0 mi SSE 18.4 mph 24.2 mph N/A   Clear
4:15 AM 46.4 °F 38.7 °F 33.8 °F 62% 29.80 in 10.0 mi SSE 20.7 mph 25.3 mph N/A   Clear
4:35 AM 46.4 °F 39.2 °F 33.8 °F 62% 29.80 in 10.0 mi SSE 18.4 mph 25.3 mph N/A   Clear
4:55 AM 44.6 °F 36.6 °F 33.8 °F 66% 29.80 in 10.0 mi SSE 19.6 mph - N/A   Clear
5:15 AM 44.6 °F 36.9 °F 33.8 °F 66% 29.80 in 10.0 mi SSE 18.4 mph - N/A   Clear
5:35 AM 44.6 °F 36.6 °F 35.6 °F 71% 29.80 in 10.0 mi SSE 19.6 mph - N/A   Scattered Clouds
5:55 AM 44.6 °F 36.9 °F 35.6 °F 71% 29.80 in 10.0 mi SSE 18.4 mph - N/A   Partly Cloudy
6:15 AM 44.6 °F 36.9 °F 35.6 °F 71% 29.80 in 10.0 mi SSE 18.4 mph - N/A   Partly Cloudy
6:35 AM 44.6 °F 36.6 °F 35.6 °F 71% 29.80 in 10.0 mi SSE 19.6 mph - N/A   Partly Cloudy
6:55 AM 44.6 °F 37.2 °F 35.6 °F 71% 29.81 in 10.0 mi SSE 17.3 mph - N/A   Scattered Clouds
7:15 AM 44.6 °F 37.2 °F 37.4 °F 76% 29.81 in 10.0 mi SSE 17.3 mph - N/A   Mostly Cloudy
7:35 AM 44.6 °F 36.6 °F 37.4 °F 76% 29.82 in 10.0 mi South 19.6 mph - N/A   Overcast
7:55 AM 46.4 °F 39.2 °F 37.4 °F 71% 29.82 in 10.0 mi South 18.4 mph 24.2 mph N/A   Overcast
8:15 AM 46.4 °F 38.7 °F 37.4 °F 71% 29.83 in 10.0 mi South 20.7 mph 24.2 mph N/A   Overcast
8:35 AM 46.4 °F 39.0 °F 37.4 °F 71% 29.83 in 10.0 mi South 19.6 mph 24.2 mph N/A   Overcast
8:55 AM 46.4 °F 38.7 °F 37.4 °F 71% 29.83 in 10.0 mi South 20.7 mph - N/A   Overcast
9:15 AM 46.4 °F 39.2 °F 39.2 °F 76% 29.84 in 10.0 mi South 18.4 mph - N/A   Overcast
9:35 AM 46.4 °F 39.0 °F 41.0 °F 81% 29.84 in 10.0 mi South 19.6 mph - N/A   Overcast
9:55 AM 46.4 °F 40.1 °F 41.0 °F 81% 29.85 in 10.0 mi SSW 15.0 mph 26.5 mph N/A   Overcast
10:15 AM 46.4 °F 39.8 °F 41.0 °F 81% 29.87 in 10.0 mi SSW 16.1 mph 21.9 mph 0.01 in   Mostly Cloudy
10:35 AM 46.4 °F 39.8 °F 42.8 °F 87% 29.87 in 10.0 mi SSW 16.1 mph - 0.01 in   Overcast
10:55 AM 46.4 °F 40.1 °F 42.8 °F 87% 29.88 in 10.0 mi SSW 15.0 mph - 0.01 in   Overcast
11:15 AM 48.2 °F - 42.8 °F 82% 29.89 in 10.0 mi SW 11.5 mph 23.0 mph N/A   Overcast
11:35 AM 46.4 °F 39.5 °F 39.2 °F 76% 29.90 in 10.0 mi West 17.3 mph 24.2 mph N/A   Overcast
11:55 AM 46.4 °F 39.8 °F 39.2 °F 76% 29.90 in 10.0 mi NW 16.1 mph - N/A   Overcast
12:15 PM 46.4 °F 39.8 °F 39.2 °F 76% 29.90 in 10.0 mi NW 16.1 mph 23.0 mph N/A   Overcast
12:35 PM 46.4 °F 39.8 °F 37.4 °F 71% 29.91 in 10.0 mi NW 16.1 mph - N/A   Overcast
12:55 PM 48.2 °F - 35.6 °F 62% 29.91 in 10.0 mi NW 16.1 mph 21.9 mph N/A   Scattered Clouds
1:15 PM 48.2 °F - 37.4 °F 66% 29.93 in 10.0 mi NW 16.1 mph - N/A   Scattered Clouds
1:35 PM 48.2 °F - 35.6 °F 62% 29.94 in 10.0 mi NW 10.4 mph - N/A   Overcast
1:55 PM 48.2 °F - 35.6 °F 62% 29.94 in 10.0 mi NW 11.5 mph - N/A   Overcast
2:15 PM 48.2 °F - 35.6 °F 62% 29.95 in 10.0 mi WNW 10.4 mph - N/A   Overcast
2:35 PM 48.2 °F - 35.6 °F 62% 29.95 in 10.0 mi NW 8.1 mph - N/A   Overcast
2:55 PM 48.2 °F - 35.6 °F 62% 29.96 in 10.0 mi WNW 10.4 mph - N/A   Overcast
3:15 PM 50.0 °F - 35.6 °F 58% 29.97 in 10.0 mi WNW 9.2 mph - N/A   Mostly Cloudy
3:35 PM 50.0 °F - 35.6 °F 58% 29.98 in 10.0 mi WNW 11.5 mph - N/A   Mostly Cloudy
3:55 PM 50.0 °F - 35.6 °F 58% 29.99 in 10.0 mi West 8.1 mph - N/A   Partly Cloudy
4:15 PM 48.2 °F - 35.6 °F 62% 30.00 in 10.0 mi West 8.1 mph - N/A   Clear
4:35 PM 48.2 °F - 35.6 °F 62% 29.99 in 10.0 mi West 5.8 mph - N/A   Clear
4:55 PM 46.4 °F 44.3 °F 35.6 °F 66% 30.00 in 10.0 mi WSW 4.6 mph - N/A   Clear
5:15 PM 46.4 °F 45.2 °F 35.6 °F 66% 30.01 in 10.0 mi WSW 3.5 mph - N/A   Clear
5:35 PM 46.4 °F 43.5 °F 35.6 °F 66% 30.01 in 10.0 mi SW 5.8 mph - N/A   Clear
5:55 PM 42.8 °F 39.3 °F 33.8 °F 70% 30.03 in 10.0 mi West 5.8 mph - N/A   Clear
6:15 PM 41.0 °F - 33.8 °F 76% 30.03 in 10.0 mi Calm Calm - N/A   Clear
6:35 PM 42.8 °F 38.6 °F 33.8 °F 70% 30.05 in 10.0 mi West 6.9 mph - N/A   Clear
6:55 PM 42.8 °F 39.3 °F 32.0 °F 66% 30.06 in 10.0 mi West 5.8 mph - N/A   Clear
7:15 PM 41.0 °F 37.1 °F 32.0 °F 70% 30.07 in 10.0 mi West 5.8 mph - N/A   Clear
7:35 PM 37.4 °F 33.8 °F 30.2 °F 75% 30.08 in 10.0 mi West 4.6 mph - N/A   Clear
7:55 PM 39.2 °F 35.0 °F 32.0 °F 75% 30.08 in 10.0 mi WSW 5.8 mph - N/A   Clear
8:15 PM 37.4 °F 32.8 °F 28.4 °F 70% 30.09 in 10.0 mi West 5.8 mph - N/A   Clear
8:35 PM 35.6 °F 30.7 °F 28.4 °F 75% 30.10 in 10.0 mi WSW 5.8 mph - N/A   Clear
8:55 PM 35.6 °F 32.8 °F 28.4 °F 75% 30.11 in 10.0 mi SW 3.5 mph - N/A   Clear
9:15 PM 33.8 °F 29.6 °F 26.6 °F 75% 30.12 in 10.0 mi SW 4.6 mph - N/A   Clear
9:35 PM 35.6 °F 31.7 °F 28.4 °F 75% 30.13 in 10.0 mi SW 4.6 mph - N/A   Clear
9:55 PM 33.8 °F 27.7 °F 28.4 °F 81% 30.14 in 10.0 mi SW 6.9 mph - N/A   Clear
10:15 PM 30.2 °F - 26.6 °F 86% 30.15 in 10.0 mi Calm Calm - N/A   Clear
10:35 PM 33.8 °F - 28.4 °F 81% 30.15 in 10.0 mi Calm Calm - N/A   Clear
10:55 PM 32.0 °F 28.7 °F 26.6 °F 80% 30.16 in 10.0 mi SW 3.5 mph - N/A   Clear
11:15 PM 32.0 °F 28.7 °F 28.4 °F 87% 30.16 in 10.0 mi WSW 3.5 mph - N/A   Clear
11:35 PM 32.0 °F 26.4 °F 26.6 °F 80% 30.16 in 10.0 mi West 5.8 mph - N/A   Clear
11:55 PM 32.0 °F 26.4 °F 26.6 °F 80% 30.16 in 10.0 mi West 5.8 mph - N/A   Clear